Weather History for Billings, MT

Change the Weather History Date:

Thursday, March 22, 2012

  Actual Average Record
Temperature  
Mean Temperature 56 °F 39 °F  
Max Temperature 73 °F 50 °F 76 °F (1960)
Min Temperature 38 °F 29 °F 1 °F (1965)
Degree Days  
Heating Degree Days 9 26  
Month to date heating degree days 423 626  
Since 1 July heating degree days 4931 5591  
Cooling Degree Days 0 0  
Month to date cooling degree days 0 0  
Year to date cooling degree days 0 0  
Growing Degree Days 6 (Base 50)    
Moisture  
Dew Point 26 °F    
Average Humidity 35    
Maximum Humidity 55    
Minimum Humidity 15    
Precipitation  
Precipitation 0.00 in 0.04 in 0.95 in (1964)
Month to date precipitation 0.70 0.68  
Year to date precipitation 1.55 1.64  
Snow  
Snow 0.00 in 0.30 in 10.50 in (1964)
Month to date snowfall 5.9 7.1  
Since 1 July snowfall 34.7 41.6  
Snow Depth 0.00 in    
Sea Level Pressure  
Sea Level Pressure 29.83 in    
Wind  
Wind Speed 9 mph (SW)    
Max Wind Speed 17 mph    
Max Gust Speed 22 mph    
Visibility 10 miles    
Events      
T = Trace of Precipitation, MM = Missing Value Source: NWS Daily Summary

Daily Weather History Graph

Daily Weather History Graph

Search for Another Location

Airport:

Trip Planner

Search our weather history database for the weather conditions in past years. The results will help you decide how hot, cold, wet, or windy it might be!

Date:

Astronomy

Mar. 22, 2012 Rise Set
Actual Time 7:12 AM MDT 7:30 PM MDT
Civil Twilight 6:42 AM MDT 7:59 PM MDT
Nautical Twilight 6:07 AM MDT 8:35 PM MDT
Astronomical Twilight 5:31 AM MDT 9:11 PM MDT
Moon 6:50 AM MDT (3/22) 8:02 PM MDT (3/22)
Length of Visible Light 13h 17m
Length of Day
12h 17m
New Moon, 0% of the Moon is Illuminated
Mar 22
New Moon
Mar 30
First Quarter
Apr 6
Full
Apr 13
Last Quarter
Apr 21
New

Hourly Weather History & Observations

Time (MDT) Temp. Windchill Dew Point Humidity Pressure Visibility Wind Dir Wind Speed Gust Speed Precip Events Conditions
12:53 AM 45.0 °F 39.3 °F 28.0 °F 52% 29.91 in 10.0 mi South 11.5 mph - N/A   Clear
1:53 AM 46.9 °F - 28.0 °F 48% 29.90 in 10.0 mi SSW 9.2 mph - N/A   Clear
2:53 AM 44.1 °F 39.0 °F 28.0 °F 53% 29.89 in 10.0 mi SSW 9.2 mph - N/A   Clear
3:53 AM 43.0 °F 37.7 °F 27.0 °F 53% 29.86 in 10.0 mi WSW 9.2 mph - N/A   Clear
4:53 AM 41.0 °F 36.4 °F 27.0 °F 57% 29.87 in 10.0 mi SW 6.9 mph - N/A   Clear
5:53 AM 44.6 °F 40.2 °F 26.6 °F 49% 29.90 in 10.0 mi SW 8.1 mph - N/A   Clear
6:53 AM 41.0 °F 36.4 °F 27.0 °F 57% 29.89 in 10.0 mi WSW 6.9 mph - N/A   Partly Cloudy
7:53 AM 43.0 °F 37.2 °F 27.0 °F 53% 29.88 in 10.0 mi WSW 10.4 mph - N/A   Partly Cloudy
8:53 AM 46.0 °F 41.9 °F 27.0 °F 47% 29.88 in 10.0 mi SSW 8.1 mph - N/A   Partly Cloudy
9:53 AM 50.0 °F - 28.9 °F 44% 29.87 in 10.0 mi South 6.9 mph - N/A   Partly Cloudy
10:53 AM 53.1 °F - 30.0 °F 41% 29.85 in 10.0 mi SSE 8.1 mph - N/A   Partly Cloudy
11:53 AM 62.1 °F - 30.0 °F 30% 29.82 in 10.0 mi South 9.2 mph - N/A   Partly Cloudy
12:53 PM 66.9 °F - 28.9 °F 24% 29.80 in 10.0 mi South 9.2 mph - N/A   Partly Cloudy
1:53 PM 69.1 °F - 24.1 °F 18% 29.78 in 10.0 mi WSW 17.3 mph - N/A   Partly Cloudy
2:53 PM 69.1 °F - 25.0 °F 19% 29.76 in 10.0 mi WSW 11.5 mph - N/A   Partly Cloudy
3:53 PM 71.1 °F - 23.0 °F 16% 29.75 in 10.0 mi SSW 11.5 mph 20.7 mph N/A   Partly Cloudy
4:53 PM 72.0 °F - 21.0 °F 15% 29.75 in 10.0 mi SW 9.2 mph - N/A   Partly Cloudy
5:53 PM 71.1 °F - 21.0 °F 15% 29.74 in 10.0 mi WSW 12.7 mph - N/A   Partly Cloudy
6:53 PM 70.0 °F - 21.9 °F 16% 29.76 in 10.0 mi SW 10.4 mph - N/A   Partly Cloudy
7:53 PM 66.0 °F - 23.0 °F 20% 29.79 in 10.0 mi SSW 3.5 mph - N/A   Clear
8:53 PM 60.1 °F - 26.1 °F 27% 29.80 in 10.0 mi WSW 8.1 mph - N/A   Clear
9:53 PM 60.1 °F - 25.0 °F 26% 29.80 in 10.0 mi WSW 8.1 mph - N/A   Clear
10:53 PM 57.9 °F - 24.1 °F 27% 29.81 in 10.0 mi WSW 9.2 mph - N/A   Clear
11:53 PM 48.9 °F - 26.1 °F 41% 29.83 in 10.0 mi NNW 8.1 mph - N/A   Clear